Allentown, PA

11:25 AM EDT on October 19, 2019 (GMT -0400)
Lehigh Valley International

Weather History for KABE - September, 2019

Change the Weather History Date:

Sunday, September 15, 2019

  Actual Average Record
Temperature  
Mean Temperature 71 °F 64 °F  
Max Temperature 82 °F 75 °F 95 °F (1927)
Min Temperature 59 °F 53 °F 38 °F (1975)
Degree Days  
Heating Degree Days 0 3  
Month to date heating degree days 2 26  
Since 1 July heating degree days 2 37  
Cooling Degree Days 6 2  
Month to date cooling degree days 91 52  
Year to date cooling degree days 1100 731  
Growing Degree Days 21 (Base 50)    
Moisture  
Dew Point 60 °F    
Average Humidity 79    
Maximum Humidity 93    
Minimum Humidity 39    
Precipitation  
Precipitation 0.00 in 0.16 in 3.23 in (2003)
Month to date precipitation 1.18 2.06  
Year to date precipitation 47.47 31.83  
Snow  
Snow 0.00 in 0.00 in 0.00 in (2002)
Month to date snowfall 0.0 0.0  
Since 1 July snowfall 0.0 0.0  
Since 1 September snowfall 0.0 0.0  
Snow Depth 0.00 in    
Sea Level Pressure  
Sea Level Pressure 30.16 in    
Wind  
Wind Speed 2 mph ()    
Max Wind Speed 10 mph    
Max Gust Speed 14 mph    
Visibility 4.8 miles    
Events Fog    
T = Trace of Precipitation, MM = Missing Value Source: Averaged Metar Reports

Daily Weather History Graph

Daily Weather History Graph

Search for Another Location

Airport or City:

Astronomy

Sep. 15, 2019 Rise Set
Actual Time 6:42 AM EDT 7:11 PM EDT
Civil Twilight 6:14 AM EDT 7:38 PM EDT
Nautical Twilight 5:42 AM EDT 8:10 PM EDT
Astronomical Twilight 5:09 AM EDT 8:43 PM EDT
Moon 8:17 PM EDT (9/15) 7:50 AM EDT (9/15)
Length of Visible Light 13h 23m
Length of Day
12h 28m
Full, 98% of the Moon is Illuminated
Sep 15
Full
Sep 21
Last Quarter
Sep 28
New
Oct 5
First Quarter
Oct 13
Full

Hourly Weather History & Observations

Time (EDT) Temp. Heat Index Dew Point Humidity Pressure Visibility Wind Dir Wind Speed Gust Speed Precip Events Conditions
12:08 AM 66.9 °F - 64.0 °F 90% 30.18 in 0.2 mi NNW 3.5 mph - N/A Fog Fog
12:20 AM 66.0 °F - 64.0 °F 93% 30.17 in 0.2 mi NNW 3.5 mph - N/A Fog Fog
12:26 AM 66.0 °F - 64.0 °F 93% 30.17 in 0.5 mi NNW 3.5 mph - N/A Fog Fog
12:51 AM 66.0 °F - 64.0 °F 93% 30.17 in 0.5 mi Calm Calm - N/A Fog Fog
1:13 AM 66.0 °F - 64.0 °F 93% 30.17 in 0.5 mi Calm Calm - N/A Fog Fog
1:20 AM 66.0 °F - 63.0 °F 90% 30.17 in 0.5 mi Calm Calm - N/A Fog Fog
1:51 AM 66.0 °F - 63.0 °F 90% 30.17 in 1.0 mi Calm Calm - N/A   Overcast
1:59 AM 66.0 °F - 63.0 °F 90% 30.17 in 1.5 mi Calm Calm - N/A   Overcast
2:08 AM 66.0 °F - 63.0 °F 90% 30.17 in 3.0 mi Calm Calm - N/A   Overcast
2:18 AM 66.0 °F - 63.0 °F 90% 30.17 in 3.0 mi NNW 3.5 mph - N/A   Overcast
2:29 AM 66.0 °F - 63.0 °F 90% 30.17 in 5.0 mi NW 3.5 mph - N/A   Overcast
2:51 AM 64.9 °F - 63.0 °F 93% 30.16 in 6.0 mi NW 3.5 mph - N/A   Overcast
3:51 AM 66.0 °F - 63.0 °F 90% 30.16 in 8.0 mi Calm Calm - N/A   Mostly Cloudy
4:00 AM 64.0 °F - 62.1 °F 93% 30.16 in 3.0 mi SW 3.5 mph - N/A   Scattered Clouds
4:28 AM 64.9 °F - 62.1 °F 90% 30.17 in 6.0 mi Calm Calm - N/A   Mostly Cloudy
4:51 AM 64.0 °F - 61.0 °F 90% 30.17 in 6.0 mi Calm Calm - N/A   Overcast
4:55 AM 64.0 °F - 61.0 °F 90% 30.18 in 0.5 mi Calm Calm - N/A Fog Fog
5:01 AM 64.0 °F - 61.0 °F 90% 30.18 in 0.5 mi Calm Calm - N/A Fog Fog
5:11 AM 64.0 °F - 61.0 °F 90% 30.18 in 0.2 mi Calm Calm - N/A Fog Fog
5:20 AM 63.0 °F - 61.0 °F 93% 30.18 in 0.2 mi Calm Calm - N/A Fog Fog
5:29 AM 63.0 °F - 60.1 °F 90% 30.18 in 0.2 mi Calm Calm - N/A Fog Fog
5:51 AM 62.1 °F - 59.0 °F 90% 30.18 in 0.5 mi Calm Calm - N/A Fog Fog
6:00 AM 62.1 °F - 59.0 °F 90% 30.18 in 0.2 mi Calm Calm - N/A Fog Fog
6:39 AM 61.0 °F - 57.9 °F 90% 30.18 in 0.2 mi WNW 3.5 mph - N/A Fog Fog
6:51 AM 60.1 °F - 57.9 °F 93% 30.18 in 0.2 mi WNW 3.5 mph - N/A Fog Fog
7:26 AM 62.1 °F - 59.0 °F 90% 30.19 in 0.8 mi WNW 4.6 mph - N/A   Mist
7:31 AM 62.1 °F - 60.1 °F 93% 30.18 in 1.2 mi West 3.5 mph - N/A   Scattered Clouds
7:43 AM 63.0 °F - 61.0 °F 93% 30.18 in 3.0 mi Calm Calm - N/A   Clear
7:51 AM 64.0 °F - 61.0 °F 90% 30.18 in 5.0 mi Calm Calm - N/A   Clear
8:51 AM 66.0 °F - 63.0 °F 90% 30.19 in 10.0 mi WNW 3.5 mph - N/A   Clear
9:51 AM 71.1 °F - 62.1 °F 73% 30.19 in 10.0 mi NNW 4.6 mph - N/A   Clear
10:51 AM 73.0 °F - 62.1 °F 68% 30.19 in 10.0 mi West 5.8 mph - N/A   Partly Cloudy
11:51 AM 75.0 °F - 57.0 °F 53% 30.17 in 10.0 mi Calm Calm - N/A   Clear
12:51 PM 77.0 °F - 54.0 °F 45% 30.16 in 10.0 mi NNE 3.5 mph - N/A   Clear
1:51 PM 80.1 °F 80.1 °F 55.0 °F 42% 30.14 in 10.0 mi West 10.4 mph - N/A   Clear
2:51 PM 81.0 °F 80.8 °F 55.9 °F 42% 30.11 in 10.0 mi Variable 4.6 mph - N/A   Clear
3:51 PM 82.0 °F 81.4 °F 55.0 °F 39% 30.10 in 10.0 mi NNW 8.1 mph - N/A   Clear
4:51 PM 81.0 °F 80.5 °F 54.0 °F 39% 30.09 in 10.0 mi NW 8.1 mph - N/A   Clear
5:51 PM 77.0 °F - 55.9 °F 48% 30.09 in 10.0 mi NNW 4.6 mph - N/A   Clear
6:51 PM 75.0 °F - 55.0 °F 50% 30.10 in 10.0 mi NW 5.8 mph - N/A   Partly Cloudy
7:51 PM 73.0 °F - 57.0 °F 57% 30.10 in 10.0 mi WNW 4.6 mph - N/A   Clear
8:51 PM 71.1 °F - 57.9 °F 63% 30.10 in 10.0 mi WSW 3.5 mph - N/A   Scattered Clouds
9:51 PM 69.1 °F - 57.9 °F 68% 30.09 in 10.0 mi SW 3.5 mph - N/A   Clear
10:51 PM 66.0 °F - 57.9 °F 75% 30.09 in 10.0 mi Calm Calm - N/A   Clear
11:51 PM 66.0 °F - 59.0 °F 78% 30.09 in 10.0 mi Calm Calm - N/A   Clear